Location: Kuffner-Sternwarte
(48.2130°N, 16.2960°E)
Time: 15:17:03
(UTC+02:00)

COROT - Pass Details

Date: 13 May 2026
Orbit: 594 x 855 km, 90.1° (Epoch: 21 May)

Event Time Altitude Azimuth Distance (km) Brightness Sun altitude
Rises 01:43:20 0° 345° (NNW) 3,362 10.3 -22.4°
Reaches altitude 10° 01:47:38 10° 313° (NW) 2,366 8.9 -22.3°
Maximum altitude 01:49:08 11° 296° (WNW) 2,257 8.5 -22.2°
Drops below altitude 10° 01:50:36 10° 279° (W) 2,316 8.4 -22.1°
Enters shadow 01:51:39 - 268° (W) 2,451 8.4 -22.1°
